Location: Claremont
(33.9858°S, 18.4575°E)
Time: 06:18:16
(UTC+00:00)

Timation 1 Rocket - Pass Details

Date: 03 March 2021
Orbit: 900 x 907 km, 70.0° (Epoch: 17 April)

Event Time Altitude Azimuth Distance (km) Brightness Sun altitude
Rises 17:58:47 0° 340° (NNW) 3,506 7.5 -8.8°
Reaches altitude 10° 18:01:15 10° 339° (NNW) 2,573 6.8 -9.3°
Maximum altitude 18:07:13 89° 255° (WSW) 913 4.4 -10.5°
Drops below altitude 10° 18:13:17 10° 158° (SSE) 2,607 6.7 -11.7°
Sets 18:15:48 0° 157° (SSE) 3,555 7.4 -12.2°
